Other Public Products
Issued by NWS Grand Forks, ND

Home | Current Version | Previous Version | Graphics & Text | Print | Product List | Glossary On
Versions: 1 2 3 4 5 6 7 8 9 10 11 12 13 14 15 16 17 18 19 20 21 22 23 24 25 26 27 28 29 30 31 32 33 34 35 36 37 38 39 40 41 42 43 44 45 46 47 48 49 50
000
FPUS83 KFGF 040210
OPUFGF
PRAIRIE TO PINES WEATHER ROUNDUP
NATIONAL WEATHER SERVICE EASTERN NORTH DAKOTA/GRAND FORKS ND
900 PM CDT THU SEP 03 2015

 **SATELLITE DATA USED TO AUGMENT SKY COVER AT AUTOMATED STATIONS**
 *****  WEATHER ACROSS EASTERN NORTH DAKOTA  *****

CITY           SKY/WX    TMP DP  RH WIND       PRES   REMARKS
GRAND FORKS    PTCLDY    84  71  65 SE17      29.73R
GRAND FORKS AF PTCLDY    84  73  69 SE16G24   29.73R HX  90
GRAND CITY NWS   N/A     82 N/A N/A S12         N/A
BUXTON         NOT AVBL
DEVILS LAKE    MOCLDY    84  64  51 S16G22    29.69R
FARGO          CLEAR     83  73  72 SE14G23   29.77R
WAHPETON ARPT  CLEAR     81  70  69 SE10      29.80R
$$

 *****  WEATHER ACROSS CENTRAL AND WESTERN NORTH DAKOTA  *****

CITY           SKY/WX    TMP DP  RH WIND       PRES   REMARKS
JAMESTOWN      CLOUDY    79  68  69 SE9       29.73R
BISMARCK       CLOUDY    90  48  23 S20       29.68S
MINOT          PTCLDY    77  67  71 NW10      29.68R
MINOT AFB      NOT AVBL
GARRISON         N/A     77  64  64 N8        29.69R
WILLISTON      PTCLDY    76  55  48 N13       29.76R
DICKINSON      MOCLDY    77  56  48 NE6       29.73R
HETTINGER      MOCLDY    72  52  49 CALM      29.74R
$$

 *****  OTHER OBSERVATIONS NORTHEAST NORTH DAKOTA  *****

CITY           SKY/WX    TMP DP  RH WIND       PRES   REMARKS
WALHALLA       FAIR      84  72  65 MISG      29.68R
LANGDON        FAIR      84  72  65 SE16      29.72R
CAVALIER       FAIR      84  72  65 S13G20    29.70R
GRAFTON        FAIR      82  73  74 SE15G21   29.72R
CANDO          NOT AVBL
FORT TOTTEN      N/A     84  62  46 S12       29.95
ROLLA            N/A     81  63  54 SE13      29.69R
RUGBY          FAIR      84  64  51 S7        29.66R
 ***** THE ABOVE OBSERVATIONS ARE NON NWS ARE NOT QUALITY
        CONTROLLED AND MAY MIS-REPORT RAIN FOR SNOW...
$$

 *****  OTHER OBSERVATIONS SOUTHEAST NORTH DAKOTA *****

CITY           SKY/WX    TMP DP  RH WIND       PRES   REMARKS
COOPERSTOWN    NOT AVBL
VALLEY CITY    FAIR      82  79  89 SE14G20   29.76R HX  93
OAKES            N/A     79  79 100 SE12      29.77R
GWINNER          N/A     81  81 100 SE7       29.78R HX  91
SHEYENNE NWR     N/A     81  74  79 SE8       29.95S
BUFFALO        NOT AVBL
WYNDMERE         N/A     81  75  83 SE7         N/A
 ***** THE ABOVE OBSERVATIONS ARE NON NWS ARE NOT QUALITY
       CONTROLLED AND MAY MIS-REPORT RAIN FOR SNOW...
$$

  *****  WEATHER ACROSS NORTHERN MINNESOTA  *****

CITY           SKY/WX    TMP DP  RH WIND       PRES   REMARKS
FLAG ISLAND    CLEAR     75  66  73 SE17      29.81R
WARROAD        CLEAR     75  68  78 SE12G17   29.82R
ROSEAU         CLEAR     77  68  73 SE14      29.80R
HALLOCK        CLEAR     82  72  69 SE12      29.72R
THF RVR FALLS  PTCLDY    79  72  78 SE9       29.81R
HALSTAD        NOT AVBL
FOSSTON        CLEAR     77  66  69 SE9       29.84R
BAUDETTE       CLEAR     74  63  68 SE13G18   29.86R
WASKISH        CLEAR     72  64  78 E6        29.87S
CROOKSTON      PTCLDY    82  72  69 S15G21    29.77R
$$
  *****  WEATHER ACROSS CENTRAL AND WEST MINNESOTA  *****

CITY           SKY/WX    TMP DP  RH WIND       PRES   REMARKS
BEMIDJI        CLEAR     73  67  81 SE8       29.88R
PARK RAPIDS    CLEAR     77  67  71 SE12      29.88R
WADENA         CLEAR     75  70  83 E8        29.87R
DETROIT LAKES  CLEAR     77  72  83 SE9       29.86R
MOORHEAD       CLEAR     81  73  78 SE9       29.79R
FERGUS FALLS   CLEAR     81  73  78 SE10      29.81R
ELBOW LAKE     FAIR      78  74  88 SE10      29.83R
MORRIS MN      CLEAR     79  75  89 SE9       29.82R
STAPLES        CLEAR     75  68  78 SE8       29.88R
WHEATON        CLEAR     73  72  94 E7        29.82R
$$
  *****  WEATHER ELSEWHERE ACROSS MINNESOTA  *****

CITY           SKY/WX    TMP DP  RH WIND       PRES   REMARKS
DULUTH         PTCLDY    61  50  67 E13       29.97R
INTRNTL FALLS  CLEAR     66  62  87 SE8       29.90R
ELY            CLEAR     63  52  67 SE5       29.98R
CLOQUET        CLEAR     61  50  67 E6        29.97R
BRAINERD       CLEAR     73  67  81 SE3       29.90R
HIBBING        CLEAR     64  56  75 SE9       29.96R
ALEXANDRIA     MOCLDY    77  72  84 SE9       29.89R
SAINT CLOUD    FAIR      75  71  87 E7        29.88R
MINNEAPOLIS    PTCLDY    78  71  79 E10       29.88R
$$

  *****  WEATHER ACROSS SOUTH DAKOTA  *****

CITY           SKY/WX    TMP DP  RH WIND       PRES   REMARKS
SIOUX FALLS    MOCLDY    80  72  76 SE8       29.81R
BROOKINGS      CLEAR     79  72  78 SE10      29.84R
WATERTOWN      CLEAR     78  71  79 SE8       29.82R
HURON          MOCLDY    79  72  79 SE10      29.75R
SISSETON         N/A     80  73  79 SE9       29.79R
ABERDEEN       MOCLDY    78  71  79 SE8       29.76R
MITCHELL       MOCLDY    77  73  87 SE6       29.76R
PIERRE         CLOUDY    82  68  62 SE10      29.69S
MOBRIDGE       CLOUDY    81  69  67 SE12      29.70R
RAPID CITY     MOCLDY    79  54  41 S16G22    29.77R
$$

  *****  SOME WEATHER IN NEARBY STATES *****

CITY           SKY/WX    TMP DP  RH WIND       PRES   REMARKS
GLASGOW MT     PTCLDY    69  35  28 N14       29.81R
GREAT FALLS MT LGT RAIN  50  48  93 N5        29.97R FOG
CHEYENNE WY    CLOUDY    65  47  52 NW14G23   30.04F
SCOTTSBLUFF NE CLOUDY    79  48  33 VRB3      29.91R
OMAHA NE       PTCLDY    83  71  67 SE14      29.82R
DES MOINES IA  PTCLDY    83  71  67 SE8       29.87R
DAVENPORT IA   PTCLDY    75  72  90 SE3       29.92R
CHICAGO IL     PTCLDY    73  67  81 NE8       29.93S
EAU CLAIRE WI  CLEAR     71  65  81 E7        29.93R
LA CROSSE WI   PTCLDY    80  71  74 E9        29.90R
$$

  *****  SOME NATIONAL WEATHER *****

CITY           SKY/WX    TMP DP  RH WIND       PRES   REMARKS
LA GUARDIA NY  MOCLDY    84  66  54 VRB5      29.88R
RALEIGH NC     PTCLDY    75  68  78 CALM      29.93R
ATLANTA GA     MOCLDY    74  67  78 NW5       29.97R
NEW ORLEANS LA PTCLDY    81  74  79 S3        29.93R
OKLAHOMA CITY  MOCLDY    80  64  58 S8        29.88R
ALBUQUERQUE NM MOCLDY    83  44  25 SW10      30.03R
SALT LAKE CITY PTCLDY    85  29  13 S17       29.74S
LOS ANGELES CA PTCLDY    70  57  63 W9        29.83S
BOISE ID       MOCLDY    68  37  32 NW13      29.84S
SEATTLE WA     MOCLDY    62  45  53 W9        29.99S
$$

*** WEATHER ACROSS MANITOBA...SASKATCHEWAN AND ONTARIO ***
                ***ONTARIO***

CITY           SKY/WX    TMP DP  RH WIND       PRES   REMARKS
GERALDTON      CLEAR     64  59  82 SE2       30.04R
THUNDER BAY    PTCLDY    63  57  82 E8        30.01R
SIOUX LOOKOUT  PTCLDY    72  57  60 SE8       29.94R
TORONTO        MOCLDY    72  64  78 N2        29.96R
BIG TROUT LK   CLEAR     75  57  53 S7        29.84S
PICKLE LAKE    CLEAR     72  54  53 SE8       29.95R
DRYDEN         CLEAR     72  61  68 SE9       29.92R
KENORA         PTCLDY    75  64  69 SE13G18   29.85R
$$
                *** MANITOBA***

CITY           SKY/WX    TMP DP  RH WIND       PRES   REMARKS
BRANDON        MOCLDY    75  70  83 NE13      29.70R
DAUPHIN        LGT RAIN  72  70  94 N8        29.75R FOG
ISLAND LAKE    MOCLDY    68  66  94 E2        29.76R
PILOT MOUND      N/A     82  64  54 SE14        N/A
THE PAS        MOCLDY    68  54  60 NW8       29.82R
THOMPSON       PTCLDY    66  57  72 W3        29.73R
WINNIPEG       PTCLDY    82  72  69 SE14      29.70R
LYNN LAKE      MOCLDY    59  46  63 W7        29.78R
CHURCHILL      CLOUDY    50  48  93 E16G22    29.76F
GILLAM         PTCLDY    70  64  83 S9        29.72R
$$
                ***SASKATCHEWAN***

CITY           SKY/WX    TMP DP  RH WIND       PRES   REMARKS
ESTEVAN        CLOUDY    73  55  53 N10G18    29.78R
KINDERSLEY     CLOUDY    55  41  58 NE3       29.97R
LLOYDMINSTER   PTCLDY    52  41  66 N6        29.99R
PRINCE ALBERT  MOCLDY    55  48  76 NW6       29.91S
REGINA         MOCLDY    63  41  45 N13       29.86S


USA.gov is the U.S. government's official web portal to all federal, state and local government web resources and services.